Location: *
(51.1248°S, 108.4023°W)
Time: 21:17:45
(UTC+00:00)

Lacrosse 4 Rocket - Visible Passes

Search period start: 23 October 2021 00:00
Search period end: 02 November 2021 00:00
Orbit: 540 x 616 km, 68.0° (Epoch: 23 October)

Date Brightness Start Highest point End Pass type
(mag) Time Alt. Az. Time Alt. Az. Time Alt. Az.
23 Oct 2.5 05:09:56 35° ESE 05:09:56 35° ESE 05:12:52 10° SE visible
23 Oct 3.2 06:46:10 27° WSW 06:47:25 31° SW 06:51:24 10° SSE visible
23 Oct 4.5 08:25:59 10° SW 08:27:28 11° SSW 08:28:57 10° S visible
24 Oct 1.5 05:13:13 66° E 05:13:13 66° E 05:17:18 10° SE visible
24 Oct 3.6 06:49:26 16° W 06:51:58 24° SW 06:55:37 10° SSE visible
24 Oct 4.7 08:32:00 10° SSW 08:32:12 10° SSW 08:32:24 10° SSW visible
25 Oct 3.3 03:40:02 15° E 03:40:02 15° E 03:41:47 10° ESE visible
25 Oct 1.5 05:16:14 54° NW 05:17:12 83° SW 05:21:41 10° SE visible
25 Oct 4.0 06:53:16 10° W 06:56:33 20° SSW 06:59:49 10° SSE visible
25 Oct 4.7 10:16:45 10° S 10:17:44 11° SSE 10:18:43 10° SSE visible
26 Oct 2.7 03:42:36 22° ENE 03:43:16 22° ENE 03:46:43 10° ESE visible
26 Oct 2.0 05:18:45 21° NW 05:21:36 59° SW 05:26:00 10° SSE visible
26 Oct 4.3 06:58:22 10° WSW 07:01:11 16° SSW 07:03:58 10° S visible
26 Oct 4.6 10:20:39 10° S 10:22:27 12° SSE 10:24:14 10° SE visible
27 Oct 2.3 03:44:07 13° N 03:47:27 32° ENE 03:51:24 10° SE visible
27 Oct 2.7 05:21:46 10° WNW 05:26:03 43° SW 05:30:17 10° SSE visible
27 Oct 4.5 07:03:36 10° SW 07:05:50 14° SSW 07:08:04 10° S visible
27 Oct 4.5 10:24:44 10° S 10:27:08 14° SSE 10:29:31 10° ESE visible
28 Oct 1.8 03:47:25 10° N 03:51:42 46° ENE 03:55:57 10° SE visible
28 Oct 3.3 05:26:29 10° WNW 05:30:31 32° SW 05:34:32 10° SSE visible
28 Oct 4.7 07:08:59 10° SW 07:10:32 12° SSW 07:12:05 10° S visible
28 Oct 4.4 10:28:52 10° SSW 10:31:47 17° SSE 10:34:39 10° ESE visible
29 Oct 1.5 03:51:33 10° NNW 03:55:59 66° ENE 04:00:24 10° SE visible
29 Oct 3.8 05:31:20 10° W 05:35:03 25° SW 05:38:45 10° SSE visible
29 Oct 5.0 07:14:51 10° SSW 07:15:16 10° SSW 07:15:41 10° S visible
29 Oct 4.3 10:33:02 10° SSW 10:36:23 21° SE 10:39:39 10° E visible
30 Oct 1.5 03:55:51 10° NW 04:00:20 87° SW 04:04:47 10° SE visible
30 Oct 4.2 05:36:17 10° W 05:39:38 20° SW 05:42:56 10° SSE visible
30 Oct 5.0 09:00:05 10° S 09:00:47 10° SSE 09:01:30 10° SSE visible
30 Oct 3.9 10:37:15 10° SSW 10:40:56 27° SE 10:44:33 10° E visible
31 Oct 2.1 04:00:17 10° NW 04:04:42 62° SW 04:09:06 10° SSE visible
31 Oct 4.6 05:41:23 10° WSW 05:44:15 17° SSW 05:47:05 10° S visible
31 Oct 4.9 09:03:52 10° S 09:05:30 12° SSE 09:07:07 10° SE visible
31 Oct 3.3 10:41:29 10° SSW 10:45:27 35° SE 10:49:19 10° ENE visible
01 Nov 2.8 04:04:51 10° WNW 04:09:08 45° SW 04:13:23 10° SSE visible
01 Nov 4.8 05:46:36 10° WSW 05:48:53 14° SSW 05:51:11 10° S visible
01 Nov 4.8 09:07:55 10° S 09:10:12 14° SSE 09:12:26 10° ESE visible
01 Nov 2.6 10:45:45 10° SSW 10:49:55 48° SE 10:53:57 10° ENE visible
